Regional Weather Roundup
Issued by NWS

Home | Current Version | Previous Version | Text Only | Print | Product List | Glossary Off
Versions: 1 2 3 4 5 6 7 8 9 10 11 12 13 14 15 16 17 18 19 20 21 22 23 24 25 26 27 28 29 30 31 32 33 34 35 36 37 38 39 40 41 42 43 44 45 46 47 48 49 50

000
ASUS43 KLMK 282310
RWRKY
KENTUCKY REGIONAL WEATHER ROUNDUP
NATIONAL WEATHER SERVICE LOUISVILLE KY
700 PM EDT WED JUN 28 2017

NOTE "FAIR" INDICATES FEW OR NO CLOUDS BELOW 12,000 FEET
WITH NO SIGNIFICANT WEATHER AND/OR OBSTRUCTIONS TO VISIBILITY.

KYZ001>023-026-027-061>063-070>075-290000-
WESTERN AND SOUTH CENTRAL KENTUCKY

CITY           SKY/WX    TMP DP  RH WIND       PRES   REMARKS
PADUCAH        MOSUNNY   84  63  49 S6        29.96F
HENDERSON      CLOUDY    82  63  52 S7        29.98F
OWENSBORO      SUNNY     84  60  44 S12       30.00F
HOPKINSVILLE   SUNNY     84  62  46 S9        30.01F
BOWLING GREEN  CLOUDY    83  58  42 S9        30.03F
GLASGOW        CLOUDY    81  54  39 S6        30.05F
$$

KYZ024-025-028>034-038-045-046-053-290000-
NORTH CENTRAL KENTUCKY

CITY           SKY/WX    TMP DP  RH WIND       PRES   REMARKS
LOUISVILLE/SDF PTSUNNY   83  53  35 S13       30.02F
LOUISVILLE/LOU MOSUNNY   82  55  39 S7        30.03F
FORT KNOX      CLOUDY    80  53  39 S5        30.03S
$$

KYZ035>037-039>044-047>052-055>060-089>105-290000-
NORTHEAST KENTUCKY

CITY           SKY/WX    TMP DP  RH WIND       PRES   REMARKS
LEXINGTON      CLOUDY    80  54  40 S7        30.07F
COVINGTON      CLOUDY    78  56  46 S14       30.03F
FRANKFORT      MOSUNNY   81  54  39 S9        30.04F
$$

KYZ054-064>069-076>088-106>120-290000-
SOUTHEAST KENTUCKY

CITY           SKY/WX    TMP DP  RH WIND       PRES   REMARKS
JACKSON        SUNNY     79  57  46 CALM      30.11F
LONDON         SUNNY     81  52  36 S6        30.09F
SOMERSET       CLOUDY    81  50  34 S5        30.09S
MIDDLESBORO    SUNNY     82  55  39 SW5       30.10F
MONTICELLO     CLEAR     82  59  45 W10       30.09F
$$




USA.gov is the U.S. government's official web portal to all federal, state and local government web resources and services.